Radioactive Concentration measured by Seawater Radiation Monitor near Fukushima Daiichi Nuclear Power Station
Date,Time,Cs137(Bq/L),Cs134(Bq/L),Total β(Bq/L)
2016/11/08,00:00,0.59,0.054,ND
2016/11/08,00:10,0.59,0.058,ND
2016/11/08,00:20,0.58,0.056,ND
2016/11/08,00:30,0.59,0.054,ND
2016/11/08,00:40,0.56,0.058,ND
2016/11/08,00:50,0.51,0.064,ND
2016/11/08,01:00,0.60,0.065,ND
2016/11/08,01:10,0.51,0.066,ND
2016/11/08,01:20,0.50,0.068,ND
2016/11/08,01:30,0.58,0.057,ND
2016/11/08,01:40,0.60,0.050,ND
2016/11/08,01:50,0.58,0.057,ND
2016/11/08,02:00,0.59,0.066,ND
2016/11/08,02:10,0.58,0.069,ND
2016/11/08,02:20,0.57,0.080,ND
2016/11/08,02:30,0.56,0.095,ND
2016/11/08,02:40,0.56,0.091,ND
2016/11/08,02:50,0.58,0.084,ND
2016/11/08,03:00,0.59,0.079,ND
2016/11/08,03:10,0.62,0.074,ND
2016/11/08,03:20,0.63,0.071,ND
2016/11/08,03:30,0.58,0.084,ND
2016/11/08,03:40,0.69,0.064,ND
2016/11/08,03:50,0.73,0.064,ND
2016/11/08,04:00,0.76,0.062,ND
2016/11/08,04:10,0.75,0.067,ND
2016/11/08,04:20,0.75,0.061,ND
2016/11/08,04:30,0.74,0.072,ND
2016/11/08,04:40,0.71,0.088,ND
2016/11/08,04:50,0.69,0.087,ND
2016/11/08,05:00,0.69,0.087,ND
2016/11/08,05:10,0.68,0.083,ND
2016/11/08,05:20,0.66,0.090,ND
2016/11/08,05:30,0.67,0.078,ND
2016/11/08,05:40,0.68,0.078,ND
2016/11/08,05:50,0.65,0.081,ND
2016/11/08,06:00,0.62,0.076,ND
2016/11/08,06:10,0.65,0.070,ND
2016/11/08,06:20,0.63,0.072,ND
2016/11/08,06:30,0.64,0.069,ND
2016/11/08,06:40,0.64,0.069,ND
2016/11/08,06:50,0.65,0.070,ND
2016/11/08,07:00,0.66,0.076,ND
2016/11/08,07:10,0.65,0.076,ND
2016/11/08,07:20,0.64,0.078,ND
2016/11/08,07:30,0.63,0.076,ND
2016/11/08,07:40,0.63,0.076,ND
2016/11/08,07:50,0.65,0.062,ND
2016/11/08,08:00,0.63,0.067,ND
2016/11/08,08:10,0.61,0.078,ND
2016/11/08,08:20,0.64,0.070,ND
2016/11/08,08:30,0.63,0.071,ND
2016/11/08,08:40,0.62,0.068,ND
2016/11/08,08:50,0.61,0.067,ND
2016/11/08,09:00,0.62,0.057,ND
2016/11/08,09:10,0.63,0.053,ND
2016/11/08,09:20,0.62,0.056,ND
2016/11/08,09:30,0.62,0.051,ND
2016/11/08,09:40,0.61,0.057,ND
2016/11/08,09:50,0.61,0.068,ND
2016/11/08,10:00,0.63,0.063,ND
2016/11/08,10:10,0.61,0.062,ND
2016/11/08,10:20,0.60,0.061,ND
2016/11/08,10:30,0.59,0.061,ND
2016/11/08,10:40,0.61,0.054,ND
2016/11/08,10:50,0.61,0.049,ND
2016/11/08,11:00,0.62,0.054,ND
2016/11/08,11:10,0.63,0.048,ND
2016/11/08,11:20,0.63,0.049,ND
2016/11/08,11:30,0.57,0.061,ND
2016/11/08,11:40,0.56,0.064,ND
2016/11/08,11:50,0.57,0.063,ND
2016/11/08,12:00,0.56,0.068,ND
2016/11/08,12:10,0.56,0.078,ND
2016/11/08,12:20,0.63,0.059,ND
2016/11/08,12:30,0.64,0.056,ND
2016/11/08,12:40,0.64,0.058,ND
2016/11/08,12:50,0.66,0.052,ND
2016/11/08,13:00,0.65,0.052,ND
2016/11/08,13:10,0.68,0.050,ND
2016/11/08,13:20,0.72,0.051,ND
2016/11/08,13:30,0.71,0.058,ND
2016/11/08,13:40,0.72,0.059,ND
2016/11/08,13:50,0.65,0.073,ND
2016/11/08,14:00,0.72,0.064,ND
2016/11/08,14:10,0.62,0.082,8.9
2016/11/08,14:20,0.65,0.081,9.5
2016/11/08,14:30,0.67,0.083,12
2016/11/08,14:40,0.66,0.082,ND
2016/11/08,14:50,0.66,0.087,ND
2016/11/08,15:00,0.67,0.089,ND
2016/11/08,15:10,0.67,0.093,ND
2016/11/08,15:20,0.70,0.095,ND
2016/11/08,15:30,0.70,0.097,ND
2016/11/08,15:40,0.70,0.10,ND
2016/11/08,15:50,0.73,0.098,ND
2016/11/08,16:00,0.70,0.093,ND
2016/11/08,16:10,0.70,0.087,ND
2016/11/08,16:20,0.71,0.074,ND
2016/11/08,16:30,0.71,0.078,ND
2016/11/08,16:40,0.71,0.075,ND
2016/11/08,16:50,0.69,0.074,ND
2016/11/08,17:00,0.68,0.083,ND
2016/11/08,17:10,0.69,0.078,ND
2016/11/08,17:20,0.68,0.074,ND
2016/11/08,17:30,0.69,0.074,ND
2016/11/08,17:40,0.69,0.068,ND
2016/11/08,17:50,0.70,0.068,ND
2016/11/08,18:00,0.71,0.067,ND
2016/11/08,18:10,0.69,0.071,ND
2016/11/08,18:20,0.66,0.087,ND
2016/11/08,18:30,0.65,0.077,ND
2016/11/08,18:40,0.65,0.077,ND
2016/11/08,18:50,0.65,0.077,ND
2016/11/08,19:00,0.67,0.073,ND
2016/11/08,19:10,0.66,0.075,11
2016/11/08,19:20,0.68,0.058,11
2016/11/08,19:30,0.66,0.071,ND
2016/11/08,19:40,0.66,0.079,ND
2016/11/08,19:50,0.59,0.092,ND
2016/11/08,20:00,0.65,0.081,ND
2016/11/08,20:10,0.67,0.075,ND
2016/11/08,20:20,0.57,0.099,ND
2016/11/08,20:30,0.66,0.071,ND
2016/11/08,20:40,0.64,0.078,ND
2016/11/08,20:50,0.63,0.059,9.3
2016/11/08,21:00,0.62,0.061,9.0
2016/11/08,21:10,0.54,0.075,9.0
2016/11/08,21:20,0.64,0.055,10
2016/11/08,21:30,0.65,0.059,11
2016/11/08,21:40,0.65,0.057,9.6
2016/11/08,21:50,0.59,0.066,9.5
2016/11/08,22:00,0.67,0.074,ND
2016/11/08,22:10,0.59,0.070,ND
2016/11/08,22:20,0.66,0.079,ND
2016/11/08,22:30,0.57,0.088,ND
2016/11/08,22:40,0.67,0.073,ND
2016/11/08,22:50,0.59,0.077,ND
2016/11/08,23:00,0.69,0.060,ND
2016/11/08,23:10,0.70,0.062,ND
2016/11/08,23:20,0.70,0.048,ND
2016/11/08,23:30,0.67,0.052,ND
2016/11/08,23:40,0.66,0.066,ND
2016/11/08,23:50,0.66,0.069,ND
